Regional Weather Roundup
Issued by NWS

Home | Current Version | Previous Version | Graphics & Text | Print | Product List | Glossary On
Versions: 1 2 3 4 5 6 7 8 9 10 11 12 13 14 15 16 17 18 19 20 21 22 23 24 25 26 27
000
ASUS45 KTFX 160310
RWRMT
MONTANA REGIONAL WEATHER ROUNDUP
NATIONAL WEATHER SERVICE GREAT FALLS MT
900 PM MDT SUN OCT 15 2017

NOTE: "FAIR" INDICATES FEW OR NO CLOUDS BELOW 12000 FEET WITH NO
SIGNIFICANT WEATHER AND/OR OBSTRUCTIONS TO VISIBILITY.

MTZ001>007-043-160400-
WEST OF THE DIVIDE

CITY           SKY/WX    TMP DP  RH WIND       PRES   REMARKS
KALISPELL      CLEAR     37  33  85 CALM      30.22F
MISSOULA       CLEAR     44  34  67 N5        30.24F
BUTTE          CLOUDY    38  29  70 SE7       30.30S
MULLAN PASS    CLEAR     39  23  52 VRB3      30.28S
ANACONDA         N/A     39  27  60 CALM      30.27S
DEER LODGE       N/A     41  30  65 W5        30.28S
EUREKA           N/A     48  34  57 MISG      30.21S
HAMILTON         N/A     46  34  61 S3        30.26S
LIBBY            N/A     41  36  81 CALM      30.22S
PLAINS           N/A     40  32  73 CALM      30.24F
$$

MTZ008-052>055-160400-
SOUTHWEST MONTANA

CITY           SKY/WX    TMP DP  RH WIND       PRES   REMARKS
BOZEMAN        CLEAR     42  33  70 S10       30.27S
DILLON         CLOUDY    44  26  49 S8        30.30S
W YELLOWSTONE  CLOUDY    28  21  74 CALM      30.44S
ENNIS          CLOUDY    46  25  42 S18       30.37F
THREE FORKS      N/A     54  25  32 SW16      30.22S
TWIN BRIDGES     N/A     42  25  51 CALM      30.24S
$$

MTZ009-010-012-014-046-048-049-054-160400-
EAST SLOPES AND CENTRAL MONTANA

CITY           SKY/WX    TMP DP  RH WIND       PRES   REMARKS
CUT BANK       CLEAR     50  32  50 W33G40    30.06F
GREAT FALLS    CLEAR     54  30  40 SW20G26   30.11F
MALMSTROM AFB  CLEAR     56  31  38 SW26G33   30.11F
HELENA         CLEAR     50  33  52 W9        30.21S
BOWMANS CRNR     N/A     48  30  49 S15       30.15F
CHOTEAU          N/A     48  32  53 W6        30.14S
FAIRFIELD        N/A     52  30  43 SW17      30.12S
POWER            N/A     50  30  46 SW18      30.10F
RAYNESFORD       N/A     51  31  46 CALM      30.15F
ULM              N/A     55  30  38 SW9       30.16S
$$

MTZ011-013-016-021-045-047-050-051-160400-
NORTH CENTRAL MONTANA

CITY           SKY/WX    TMP DP  RH WIND       PRES   REMARKS
HAVRE          CLEAR     48  34  58 SW8       30.01F
N BAR RANCH      N/A     50  27  40 W7        30.18F
CHINOOK          N/A     48  34  57 CALM      30.01F
DENTON           N/A     47  30  51 S5        30.08F
GEYSER           N/A     52  31  44 W26G33    30.09F
GRASS RANGE      N/A     49  31  51 W18       30.09F
JUDITH GAP       N/A     48  29  46 S14G21    30.17F
WINIFRED         N/A     50  31  49 SW10      30.10F
$$

MTZ017>020-022>027-061-062-160400-
NORTHEAST MONTANA

CITY           SKY/WX    TMP DP  RH WIND       PRES   REMARKS
GLASGOW        CLEAR     48  33  56 S10       30.05F
JORDAN           N/A     41  30  65 CALM      30.10F
SIDNEY         CLEAR     42  30  62 SW9       30.13F
WOLF POINT     CLEAR     37  27  67 CALM      30.09F
MALTA          CLEAR     48  36  61 W5        30.04F
PLENTYWOOD       N/A     48  28  46 CALM      30.08F
POPLAR           N/A     43  28  56 SE5       30.09F
SCOBEY           N/A     43  24  47 S5        30.05F
$$

MTZ028>42-056>058-160400-
SOUTHCENTRAL AND SOUTHEAST MONTANA

CITY           SKY/WX    TMP DP  RH WIND       PRES   REMARKS
BAKER          CLEAR     42  29  59 S10       30.20F
BILLINGS       CLEAR     53  26  35 W17       30.19S
LIVINGSTON     CLEAR     53  28  38 W26G45    30.24F
MILES CITY     CLEAR     45  31  58 SE8       30.16F
FORSYTH          N/A     48  28  46 CALM      30.15F
HARLOWTON        N/A     48  29  47 MISG      30.19S
LAUREL           N/A     50  25  37 W12       30.21S
$$

REGIONAL REPORTS...DAKOTAS

CITY           SKY/WX    TMP DP  RH WIND       PRES   REMARKS
WILLISTON      CLEAR     37  28  70 S3        30.12F
MINOT          CLOUDY    41  30  65 SW10      30.12F
DICKINSON      CLEAR     36  25  64 S6        30.17F WCI  31
BEACH            N/A     37  28  70 SW8       30.20F WCI  31
CROSBY           N/A     41  28  60 SW13      30.09F
TIOGA            N/A     41  27  56 SW13      30.12F
BISMARCK       CLEAR     34  27  75 CALM      30.20F
GRAND FORKS    PTCLDY    41  33  73 W7        30.13R
FARGO          CLEAR     37  33  85 SW5       30.16R
BUFFALO SD       N/A     44  27  51 SW6       30.18
RAPID CITY     CLEAR     36  27  69 CALM      30.29S
$$

REGIONAL REPORTS...WYOMING/IDAHO/WASHINGTON

CITY           SKY/WX    TMP DP  RH WIND       PRES   REMARKS
GILLETTE       CLEAR     40  28  62 NE5       30.25F
SHERIDAN       CLEAR     39  28  64 CALM      30.23F
BUFFALO WY     CLEAR     46  24  42 S9        30.27F
CODY           CLOUDY    44  26  49 VRB3      30.30F
YELLOWSTONE LA   N/A     27  24  89 NW5       30.48S
IDAHO FALLS    CLOUDY    35  30  82 CALM      30.42S
SALMON         CLOUDY    39  27  62 CALM      30.34R
BOISE          PTCLDY    46  29  51 E3        30.35R
SPOKANE        PTCLDY    49  33  54 S3        30.25S
$$

REGIONAL REPORTS...ALBERTA

CITY           SKY/WX    TMP DP  RH WIND       PRES   REMARKS
EDMONTON       PTCLDY    46  32  57 W6        29.74S
CALGARY        MOCLDY    54  19  26 W9        29.88S
LETHBRIDGE     MOCLDY    54  32  43 SW26G37   29.94F
MEDICINE HAT   PTCLDY    48  34  57 S12G18    29.90F
$$

REGIONAL REPORTS...SASKATCHEWAN

CITY           SKY/WX    TMP DP  RH WIND       PRES   REMARKS
SWIFT CURRENT  CLEAR     45  30  57 SW15      29.91F
REGINA         PTCLDY    39  25  56 S9        29.98F
SASKATOON      MOCLDY    46  28  49 S12       29.87F
$$




USA.gov is the U.S. government's official web portal to all federal, state and local government web resources and services.